Kezdőlap
METAR-TAF:

METAR-TAF

Repülőterek :

Wahoo, Nebraska, Amerikai Egyesült Államok

földrajzi szélesség: 41-14-26N, földrajzi hosszúság: 096-35-40W, magasság: 373 m

Jelenlegi meteorológiai megfigyelések

A jelentés 28 perccel ezelõtt készült, 23:15 UTC
Dél-délnyugati szél 10 kt
Hőmérséklet 13°C
Páratartalom 44%
Légköri nyomás 1014 hPa
Látótávolság: 16.1 km
Derült ég

METAR: KAHQ 222315Z AUTO 21010KT 10SM CLR 13/01 A2993 RMK AO2 T01340010

Idő: 17:43 (23:43 UTC)


TAF: hiányzik

Meteorológiai megfigyelések és előrejelzések több, mint 4000 repülőtéren (METAR és TAF jelentéseket).

A térképen piros és sárga pontok jelzik az elérhető meteorológiai állomásokat.

Mozgassa az egeret a pont fölött, hogy megjelenjen az állomás neve.

Azután kattintson az időjárási megfigyelések és előrejelzések megtekintéséhez.

A térkép megváltoztatása: kattintson a fekete keresztel jelölt zöld gombra ráközelítéshez, a vonallal jelölt zöld gombra távolításhoz, vagy a zöld nyilakra a szomszédos térképek eléréséhez.


METAR-TAF: